Weather History for Alamogordo, NM

Change the Weather History Date:

Thursday, October 18, 2012

  Actual Average Record
Temperature  
Mean Temperature 68 °F -  
Max Temperature 80 °F 77 °F 89 °F (1975)
Min Temperature 55 °F 45 °F 6 °F (1998)
Cooling Degree Days 2    
Growing Degree Days 18 (Base 50)    
Moisture  
Dew Point 14 °F    
Average Humidity 14    
Maximum Humidity 38    
Minimum Humidity 7    
Precipitation  
Precipitation 0.00 in - - ()
Sea Level Pressure  
Sea Level Pressure 30.03 in    
Wind  
Wind Speed 10 mph (North)    
Max Wind Speed 17 mph    
Max Gust Speed 22 mph    
Visibility 10 miles    
Events Rain    
Averages and records for this station are not official NWS values.
T = Trace of Precipitation, MM = Missing Value Source: NWS Daily Summary

Daily Weather History Graph

Daily Weather History Graph

Search for Another Location

Airport:

Trip Planner

Search our weather history database for the weather conditions in past years. The results will help you decide how hot, cold, wet, or windy it might be!

Date:

Astronomy

Oct. 18, 2012 Rise Set
Actual Time 7:10 AM MDT 6:26 PM MDT
Civil Twilight 6:45 AM MDT 6:51 PM MDT
Nautical Twilight 6:17 AM MDT 7:20 PM MDT
Astronomical Twilight 5:48 AM MDT 7:48 PM MDT
Moon 10:44 AM MDT (10/18) 9:14 PM MDT (10/18)
Length of Visible Light 12h 05m
Length of Day
11h 15m
Waxing Crescent, 15% of the Moon is Illuminated
Oct 18
Waxing Crescent
Oct 21
First Quarter
Oct 29
Full
Nov 6
Last Quarter
Nov 13
New

Hourly Weather History & Observations

Time (MDT) Temp. Dew Point Humidity Pressure Visibility Wind Dir Wind Speed Gust Speed Precip Events Conditions
12:15 AM 59.0 °F 32.0 °F 36% 29.97 in 10.0 mi NNW 4.6 mph - N/A   Clear
12:35 AM 57.2 °F 32.0 °F 38% 29.97 in 10.0 mi NE 8.1 mph - N/A   Clear
12:55 AM 62.6 °F 30.2 °F 30% 29.97 in 10.0 mi ENE 4.6 mph - N/A   Clear
1:15 AM 62.6 °F 32.0 °F 32% 29.98 in 10.0 mi North 10.4 mph - N/A   Clear
1:35 AM 62.6 °F 28.4 °F 27% 29.98 in 10.0 mi North 11.5 mph - N/A   Clear
1:55 AM 64.4 °F 24.8 °F 22% 29.99 in 10.0 mi North 11.5 mph - N/A   Clear
2:15 AM 59.0 °F 24.8 °F 27% 29.99 in 10.0 mi NNE 6.9 mph - N/A   Clear
2:35 AM 62.6 °F 19.4 °F 19% 29.99 in 10.0 mi North 9.2 mph - N/A   Clear
2:55 AM 62.6 °F 21.2 °F 20% 29.99 in 10.0 mi NNE 9.2 mph - N/A   Clear
3:15 AM 62.6 °F 17.6 °F 18% 29.99 in 10.0 mi NNE 10.4 mph - N/A   Clear
3:35 AM 60.8 °F 15.8 °F 17% 29.99 in 10.0 mi NNE 9.2 mph - N/A   Clear
3:55 AM 59.0 °F 15.8 °F 19% 30.00 in 10.0 mi North 9.2 mph - N/A   Clear
4:15 AM 55.4 °F 17.6 °F 23% 30.00 in 10.0 mi North 11.5 mph - N/A   Clear
4:35 AM 57.2 °F 15.8 °F 20% 30.01 in 10.0 mi North 12.7 mph - N/A   Clear
4:55 AM 60.8 °F 12.2 °F 15% 30.02 in 10.0 mi North 13.8 mph - N/A   Clear
5:35 AM 60.8 °F 8.6 °F 13% 30.03 in 10.0 mi North 11.5 mph - N/A   Clear
5:55 AM 59.0 °F 10.4 °F 15% 30.03 in 10.0 mi North 12.7 mph - N/A   Clear
6:15 AM 59.0 °F 8.6 °F 14% 30.04 in 10.0 mi North 11.5 mph - N/A   Clear
6:35 AM 60.8 °F 8.6 °F 13% 30.04 in 10.0 mi North 11.5 mph - N/A   Clear
6:55 AM 57.2 °F 10.4 °F 16% 30.04 in 10.0 mi North 10.4 mph - N/A   Clear
7:15 AM 59.0 °F 8.6 °F 14% 30.05 in 10.0 mi North 12.7 mph - N/A   Clear
7:35 AM 59.0 °F 8.6 °F 14% 30.05 in 10.0 mi North 12.7 mph - N/A   Clear
7:55 AM 60.8 °F 8.6 °F 13% 30.06 in 10.0 mi North 11.5 mph - N/A   Clear
8:15 AM 60.8 °F 10.4 °F 14% 30.07 in 10.0 mi North 12.7 mph - N/A   Clear
8:35 AM 59.0 °F 10.4 °F 15% 30.08 in 10.0 mi North 11.5 mph - N/A   Clear
8:55 AM 62.6 °F 10.4 °F 13% 30.08 in 10.0 mi North 12.7 mph - N/A   Clear
9:15 AM 60.8 °F 10.4 °F 14% 30.09 in 10.0 mi North 11.5 mph - N/A   Clear
9:35 AM 62.6 °F 14.0 °F 15% 30.10 in 10.0 mi North 10.4 mph - N/A   Clear
9:55 AM 69.8 °F 8.6 °F 9% 30.10 in 10.0 mi North 17.3 mph - N/A   Clear
10:15 AM 71.6 °F 8.6 °F 9% 30.10 in 10.0 mi North 17.3 mph 20.7 mph N/A   Clear
10:35 AM 73.4 °F 8.6 °F 8% 30.09 in 10.0 mi North 17.3 mph - N/A   Clear
11:15 AM 75.2 °F 8.6 °F 8% 30.09 in 10.0 mi NNW 15.0 mph 19.6 mph N/A   Clear
11:35 AM 75.2 °F 8.6 °F 8% 30.09 in 10.0 mi North 13.8 mph 19.6 mph N/A   Clear
11:55 AM 75.2 °F 8.6 °F 8% 30.08 in 10.0 mi NNW 17.3 mph - N/A   Clear
12:15 PM 77.0 °F 8.6 °F 7% 30.08 in 10.0 mi North 15.0 mph 20.7 mph N/A   Clear
12:35 PM 77.0 °F 8.6 °F 7% 30.07 in 10.0 mi North 15.0 mph - N/A   Clear
12:55 PM 77.0 °F 8.6 °F 7% 30.07 in 10.0 mi North 16.1 mph 20.7 mph N/A   Clear
1:15 PM 77.0 °F 8.6 °F 7% 30.06 in 10.0 mi North 11.5 mph - N/A   Clear
1:35 PM 78.8 °F 10.4 °F 7% 30.05 in 10.0 mi NNE 12.7 mph 21.9 mph N/A   Clear
1:55 PM 78.8 °F 10.4 °F 7% 30.05 in 10.0 mi North 13.8 mph 18.4 mph N/A   Clear
2:15 PM 78.8 °F 10.4 °F 7% 30.04 in 10.0 mi North 12.7 mph 17.3 mph N/A   Clear
2:35 PM 78.8 °F 10.4 °F 7% 30.03 in 10.0 mi North 9.2 mph 18.4 mph N/A   Clear
2:55 PM 80.6 °F 10.4 °F 7% 30.03 in 10.0 mi NNW 17.3 mph 20.7 mph N/A   Clear
3:15 PM 80.6 °F 12.2 °F 8% 30.03 in 9.0 mi NNE 12.7 mph 18.4 mph N/A   Clear
3:35 PM 80.6 °F 10.4 °F 7% 30.02 in 10.0 mi North 8.1 mph 18.4 mph N/A   Clear
3:55 PM 80.6 °F 10.4 °F 7% 30.02 in 10.0 mi NNE 9.2 mph - N/A   Clear
4:15 PM 80.6 °F 10.4 °F 7% 30.01 in 10.0 mi NNE 6.9 mph - N/A   Clear
4:35 PM 80.6 °F 12.2 °F 8% 30.01 in 10.0 mi North 5.8 mph 16.1 mph N/A   Clear
4:55 PM 80.6 °F 12.2 °F 8% 30.01 in 10.0 mi North 5.8 mph - N/A   Clear
5:15 PM 78.8 °F 12.2 °F 8% 30.00 in 10.0 mi North 10.4 mph - N/A   Clear
5:35 PM 78.8 °F 12.2 °F 8% 30.00 in 10.0 mi NNW 9.2 mph - N/A   Clear
5:55 PM 77.0 °F 12.2 °F 9% 30.00 in 10.0 mi North 5.8 mph - N/A   Clear
6:15 PM 75.2 °F 14.0 °F 10% 30.00 in 10.0 mi North 4.6 mph - N/A Rain Light Rain
6:35 PM 73.4 °F 14.0 °F 10% 30.00 in 10.0 mi North 3.5 mph - N/A   Clear
6:55 PM 68.0 °F 14.0 °F 12% 30.00 in 10.0 mi NE 5.8 mph - N/A   Clear
7:15 PM 64.4 °F 15.8 °F 15% 30.01 in 10.0 mi NE 8.1 mph - N/A   Clear
7:35 PM 62.6 °F 14.0 °F 15% 30.01 in 10.0 mi NE 9.2 mph - N/A   Clear
8:35 PM 64.4 °F 14.0 °F 14% 30.01 in 10.0 mi NE 8.1 mph - N/A   Clear
8:55 PM 64.4 °F 14.0 °F 14% 30.01 in 10.0 mi NE 9.2 mph - N/A   Clear
9:15 PM 57.2 °F 15.8 °F 20% 30.02 in 10.0 mi ESE 3.5 mph - N/A   Clear
9:35 PM 64.4 °F 14.0 °F 14% 30.02 in 10.0 mi East 5.8 mph - N/A   Clear
9:55 PM 57.2 °F 15.8 °F 20% 30.03 in 10.0 mi SE 6.9 mph - N/A   Clear